Theta_e
314 319 318 321 318 319 321 321 321 322 323 324 324 325 326 326 324 322 321 322 323 323 324 326 324 324 326 327 327 327 329 328 329 330 331 332 332 331 330 330 329 328 327 324
313 315 316 315 316 317 318 320 322 322 322 322 323 326 326 325 325 323 323 323 323 325 326 326 324 324 326 326 327 330 329 329 331 334 331 332 332 331 331 330 329 329 328 327
313 315 318 317 316 320 320 320 321 325 324 323 323 325 326 326 326 325 324 322 324 326 326 326 324 323 325 326 327 330 329 330 333 331 331 331 330 330 330 329 328 328 329 327
313 314 316 317 315 315 321 322 322 324 326 326 324 327 323 324 324 324 322 322 324 324 325 326 323 322 323 324 328 328 329 331 333 331 331 331 330 330 330 328 328 328 328 327
313 313 314 314 314 315 320 322 323 324 326 323 324 324 323 323 325 324 323 324 324 323 325 325 323 323 325 326 327 329 331 333 332 331 331 329 329 329 327 327 329 328 327 328
314 314 313 313 315 315 318 321 321 322 323 325 324 325 327 324 325 325 322 325 324 324 324 325 324 324 325 324 328 329 330 333 333 331 331 329 327 326 325 326 328 329 329 328
315 315 315 314 313 316 317 318 322 323 326 328 324 326 327 323 324 324 325 326 325 325 326 326 325 323 324 327 328 330 330 332 331 331 330 329 327 325 326 329 330 329 329 329
315 317 316 316 315 314 314 317 322 327 327 326 324 325 325 323 323 323 327 326 326 325 326 326 325 323 324 326 328 330 329 329 330 330 330 330 329 329 329 329 330 329 329 329
314 316 318 317 317 315 315 315 318 322 325 324 324 325 325 325 325 327 326 327 326 325 326 326 323 321 323 326 328 329 328 328 330 330 329 330 330 329 330 330 329 329 329 329
315 316 317 317 316 316 315 319 322 320 326 327 325 326 328 323 327 328 328 326 325 325 325 325 323 320 323 327 327 328 328 327 329 329 328 330 330 330 329 329 329 328 329 330
316 316 320 316 317 316 315 316 321 321 322 325 325 325 322 324 322 329 327 326 326 325 326 325 322 322 323 326 325 328 327 328 327 329 328 330 330 330 328 327 329 328 328 330
316 314 317 318 317 317 316 316 320 324 324 322 323 323 323 321 328 328 327 327 325 325 325 324 322 321 322 324 326 327 326 326 326 326 327 329 329 329 329 327 328 330 328 330
319 316 317 321 319 319 316 317 320 319 321 324 323 323 323 327 328 329 328 327 326 325 324 323 320 321 322 323 326 326 326 325 325 325 325 329 329 329 330 327 328 330 329 330
315 318 316 319 321 320 320 318 323 322 323 323 324 325 326 327 331 329 328 327 325 326 325 324 321 320 322 323 325 326 326 324 324 324 326 327 326 327 329 329 327 329 330 330
311 319 316 316 318 321 322 320 321 325 323 325 323 324 324 324 331 330 328 326 325 326 325 324 321 319 319 323 324 325 326 324 324 323 326 325 325 326 328 330 328 328 329 330
310 316 319 316 317 317 319 321 322 324 324 323 323 325 323 323 330 330 328 327 326 326 325 325 323 319 318 323 324 325 325 322 324 323 324 324 326 327 327 329 329 329 329 330
311 316 320 318 318 317 318 319 323 324 324 324 324 321 321 324 327 330 327 327 326 326 325 325 323 320 320 321 324 325 325 322 323 322 323 324 326 328 323 327 327 328 327 327
311 313 315 320 318 321 320 320 322 324 323 324 321 321 323 324 323 328 327 326 326 325 325 325 324 320 320 321 323 325 325 321 323 322 323 323 325 326 324 324 326 324 323 324
311 312 317 323 320 320 319 323 322 323 323 321 322 320 321 322 321 326 327 326 326 325 325 324 324 321 320 321 323 324 321 320 322 322 322 321 322 326 326 326 326 323 322 324
311 312 320 325 321 322 319 324 322 322 325 321 321 321 320 320 324 322 327 326 325 325 324 324 324 320 321 321 323 323 318 319 321 321 322 321 322 325 326 324 326 323 321 322
318 318 320 322 326 322 320 322 323 326 326 322 321 321 320 321 322 319 326 326 325 324 324 325 323 321 321 321 323 321 318 317 320 320 321 321 321 322 324 324 324 326 323 321
324 328 325 325 326 324 324 324 325 326 320 322 321 319 320 320 320 319 327 327 326 325 324 325 323 321 321 322 323 321 318 318 319 320 320 321 320 321 323 324 323 324 326 323
321 321 321 325 325 320 319 321 318 326 326 324 321 320 321 320 322 324 324 327 327 325 325 326 324 321 321 322 322 322 320 320 319 320 319 320 320 321 321 324 323 324 325 326
315 315 317 321 319 315 317 315 316 319 328 328 326 322 320 322 321 322 325 327 327 326 326 326 323 321 322 322 322 323 323 321 320 319 319 318 320 321 321 324 323 324 325 326
314 314 316 319 316 315 315 314 315 315 318 326 328 325 323 322 321 321 326 327 328 327 327 326 324 323 322 322 322 322 323 323 321 320 319 317 319 322 323 324 325 325 325 325
315 314 317 319 315 313 314 314 315 314 314 325 328 330 324 322 321 323 327 327 328 328 327 327 325 324 323 323 322 323 323 324 322 320 320 318 318 322 324 324 325 325 323 323
Wind_Speed
13 9 16 24 25 19 9 6 9 20 19 6 8 15 22 16 5 9 10 10 10 6 9 21 27 31 28 25 20 14 11 9 4 2 5 5 7 9 9 8 10 7 6 10
8 26 22 18 16 15 13 12 16 22 18 5 14 17 21 10 7 9 12 10 5 6 12 15 23 27 28 25 19 15 12 9 3 1 3 5 10 9 10 8 7 8 7 7
25 9 19 20 14 13 17 18 21 19 17 8 9 14 13 11 4 3 7 8 12 18 17 15 14 22 27 24 19 17 13 9 5 2 2 4 7 7 5 3 6 7 4 4
17 22 17 19 18 17 18 19 19 20 12 8 7 5 5 7 7 4 9 4 9 15 14 14 12 15 25 23 20 16 14 9 6 3 3 5 6 5 5 3 5 5 1 4
11 20 25 21 27 22 20 14 18 17 14 8 21 2 8 6 6 8 9 6 10 16 18 16 14 20 24 24 20 19 13 9 7 3 2 5 6 7 4 3 4 4 0 5
18 9 20 25 18 22 24 11 9 8 8 7 16 4 13 5 7 6 1 6 9 11 10 10 17 24 25 23 22 19 13 9 6 5 3 4 5 7 6 5 4 5 1 6
13 21 16 11 23 16 12 7 3 3 6 9 10 6 18 7 9 8 8 10 10 12 13 15 13 11 20 25 22 19 15 10 7 7 3 2 3 7 7 6 8 6 1 7
15 11 25 23 23 19 23 13 6 7 4 4 7 7 11 10 7 8 11 14 13 12 12 14 13 14 19 25 23 20 16 12 10 8 4 1 3 3 4 6 6 5 4 7
15 16 6 25 15 20 8 19 15 3 3 2 4 6 9 1 6 10 11 13 12 12 13 14 11 16 22 26 24 21 18 14 13 9 5 2 3 4 3 5 5 4 2 5
5 6 16 16 17 19 25 6 6 1 11 6 4 3 5 3 8 9 10 11 9 9 11 12 11 15 24 28 23 19 20 17 15 9 6 4 3 3 3 5 5 4 6 4
12 4 5 16 20 28 7 17 6 6 6 7 4 8 7 12 12 14 15 13 15 14 14 13 10 18 26 27 20 20 20 19 13 9 7 7 6 6 6 6 6 6 7 7
21 5 9 16 1 19 14 9 17 7 5 2 6 8 5 8 16 17 12 13 12 15 15 13 11 16 21 25 21 22 21 20 16 12 9 9 7 7 7 7 8 8 10 10
7 15 6 7 2 4 19 16 11 5 4 8 7 7 4 3 11 14 15 12 13 12 11 10 9 11 16 23 24 22 21 22 17 14 11 11 7 7 6 7 9 9 10 13
7 5 27 15 11 7 7 18 13 9 5 6 12 5 5 6 12 8 10 14 15 16 16 13 11 10 17 22 26 22 20 23 20 18 14 11 6 7 7 7 9 9 9 11
6 8 18 29 15 3 4 17 20 14 13 13 7 10 8 11 14 18 16 13 14 15 15 15 14 11 15 20 25 25 21 24 25 20 17 13 10 8 8 8 12 14 13 13
6 6 7 21 30 23 15 8 23 20 9 8 11 7 8 15 15 13 16 18 18 18 18 17 16 15 12 21 25 28 24 26 29 23 20 16 11 7 9 10 11 11 10 10
4 5 7 20 19 20 18 21 12 17 15 13 10 8 8 7 15 19 15 20 20 19 19 18 18 16 20 23 29 28 27 29 32 26 22 18 14 10 12 13 14 13 14 12
8 2 3 6 6 10 11 12 12 18 16 14 6 9 15 10 13 17 19 21 19 19 18 18 16 19 25 27 31 33 30 33 33 29 25 21 16 17 14 13 15 15 12 13
18 6 4 3 14 5 9 7 11 9 9 9 16 11 12 9 8 4 18 20 23 21 19 18 28 30 29 32 35 34 30 34 31 30 28 24 20 19 16 16 18 18 15 17
17 15 5 4 6 13 6 5 9 6 12 10 11 12 11 9 9 5 19 19 18 18 17 19 27 26 28 30 37 33 28 29 28 31 31 28 25 22 18 18 21 19 16 17
5 5 13 5 5 5 5 6 6 15 10 6 12 12 10 10 10 9 16 18 18 19 19 25 28 29 32 34 36 29 30 28 35 35 33 30 28 26 23 22 20 20 18 18
4 3 4 4 5 3 25 7 5 8 11 8 10 10 10 9 10 7 19 20 19 17 15 25 24 25 31 35 34 28 29 36 36 34 34 34 32 31 27 27 23 21 20 20
3 6 5 4 3 2 10 12 6 7 4 9 8 9 14 11 9 11 12 15 17 18 17 28 27 24 28 34 36 30 31 38 37 35 34 36 35 34 32 31 27 24 22 21
3 7 5 10 6 16 6 16 20 20 15 15 11 7 12 13 11 9 11 15 15 16 17 25 23 21 24 31 33 37 37 40 36 34 34 36 36 34 35 34 33 29 27 24
2 6 7 7 11 18 9 19 18 20 18 19 16 11 15 12 10 11 9 14 16 17 20 26 24 24 28 33 31 33 40 39 34 35 33 34 35 37 35 36 37 35 32 31
4 3 0 3 12 6 14 15 15 20 19 17 13 13 11 8 8 9 12 15 16 17 23 21 25 26 28 32 31 37 41 41 36 31 31 31 30 31 30 30 28 34 32 31
Wind_Direction
193 196 213 209 220 229 244 246 256 260 263 268 260 266 267 267 238 228 229 237 235 170 138 145 153 154 148 146 145 151 150 147 150 326 323 303 285 289 269 288 310 300 274 238
215 222 212 224 228 228 231 243 255 273 266 243 274 284 267 262 234 209 227 236 154 123 142 146 154 153 152 150 151 149 156 147 126 34 319 305 308 297 284 282 297 299 265 252
208 219 202 207 213 218 223 227 242 255 282 259 268 282 275 285 261 207 245 229 163 164 157 159 160 154 152 152 155 157 154 138 122 65 28 315 321 331 347 275 311 323 250 232
232 224 203 214 221 214 238 221 234 246 264 258 146 267 287 246 267 286 289 204 164 166 162 154 152 151 154 157 157 155 151 140 143 90 40 357 338 356 354 331 339 356 298 182
203 187 211 222 217 212 233 226 238 247 253 254 277 255 260 266 276 274 268 170 176 170 159 153 156 153 160 157 156 153 146 142 165 123 75 19 38 53 47 325 316 347 200 178
211 188 206 220 224 213 230 240 243 259 245 238 251 177 275 219 224 262 15 163 148 146 138 127 146 155 159 159 153 153 148 158 180 145 89 28 58 64 43 11 1 352 338 181
216 218 220 191 209 219 200 183 250 270 214 229 231 216 248 226 230 213 174 169 154 150 140 148 154 152 158 159 157 156 158 165 171 147 106 42 66 66 45 16 1 2 47 153
207 218 211 208 205 207 222 204 191 187 205 221 207 221 255 231 269 200 164 156 150 148 153 157 159 160 160 161 161 163 168 173 165 164 148 59 57 51 33 23 16 39 108 152
195 226 242 204 202 191 202 211 212 214 293 132 215 273 329 55 111 125 143 147 159 153 157 157 161 161 161 165 169 171 176 176 169 171 164 193 75 60 31 33 48 81 104 184
212 197 233 211 199 225 218 157 164 311 216 221 274 225 221 160 160 153 151 164 154 142 148 159 164 162 166 170 172 175 181 176 170 173 179 196 99 73 58 64 92 85 85 114
250 59 326 200 205 206 177 211 209 170 170 192 209 254 210 200 182 166 177 170 162 160 161 164 165 169 169 170 168 171 175 170 171 182 175 153 134 96 100 75 96 119 91 103
209 133 240 245 287 209 214 186 195 208 219 193 164 254 288 198 167 166 167 168 168 165 164 161 164 160 162 168 165 165 169 167 163 159 148 145 129 105 107 77 102 106 111 103
327 214 252 322 173 241 201 205 190 134 113 185 157 247 240 224 153 169 157 164 164 153 154 153 152 162 164 169 169 170 170 171 168 165 152 153 137 118 125 105 94 124 116 113
321 253 210 216 214 168 198 207 186 163 161 172 203 181 162 161 151 157 168 163 162 163 162 164 164 168 168 173 175 177 176 176 171 165 155 158 154 131 144 125 93 116 127 105
20 255 207 220 247 230 193 207 197 187 185 186 192 173 197 177 176 180 173 155 158 164 166 172 171 171 170 172 179 183 180 177 171 165 156 154 153 139 144 139 122 107 109 116
349 292 241 220 230 237 250 251 203 204 186 138 166 199 196 187 183 160 172 165 171 175 176 178 177 173 173 175 179 184 183 177 172 168 162 161 171 162 150 151 133 124 114 128
285 333 330 221 218 234 241 237 221 196 180 156 178 195 164 155 173 180 175 175 177 180 179 178 180 180 179 177 180 184 184 176 174 169 165 166 171 168 153 143 142 130 129 121
238 264 271 251 171 220 239 204 211 209 181 184 157 166 172 192 186 186 179 177 180 182 180 182 180 181 182 179 180 184 179 175 174 171 169 171 170 163 156 146 149 144 139 133
208 185 273 241 196 255 237 194 184 171 215 178 183 191 178 183 120 170 189 183 180 186 183 182 183 182 176 177 181 178 169 172 171 173 173 175 174 171 164 146 150 150 137 138
184 195 196 324 154 214 207 180 178 127 218 183 176 187 195 147 171 226 184 187 190 184 179 178 179 175 175 174 176 168 166 167 171 177 179 178 180 179 175 160 154 153 144 148
168 186 219 241 287 287 242 170 99 182 221 192 181 187 174 190 196 188 179 183 185 177 179 174 169 172 177 173 169 167 170 175 181 183 183 181 183 183 181 176 164 160 158 154
285 288 192 189 243 88 342 64 90 301 285 205 191 184 178 176 198 152 173 181 177 177 164 170 171 173 173 172 168 168 177 183 183 185 187 187 187 186 183 182 179 172 166 169
258 20 299 360 6 220 7 59 332 310 334 344 214 186 175 164 176 157 172 174 173 169 172 175 173 167 171 175 174 172 182 182 184 186 186 191 191 190 187 185 183 183 183 177
195 307 270 314 0 328 359 6 13 7 360 335 334 223 167 171 172 170 161 168 167 171 168 171 162 166 170 179 181 183 181 184 184 187 187 191 190 191 192 189 189 189 191 195
149 262 326 285 352 339 358 358 353 349 348 351 347 328 184 167 174 161 161 164 165 166 165 166 171 173 177 178 183 181 184 182 183 191 188 185 187 189 188 192 192 195 200 201
181 212 22 323 316 275 302 323 341 346 341 337 340 343 350 39 175 156 164 166 162 163 167 169 177 176 176 178 181 183 184 186 183 185 184 182 183 183 187 188 194 204 209 208